Regional Weather Roundup
Issued by NWS Huntsville, AL

Home | Current Version | Previous Version | Text Only | Print | Product List | Glossary On
Versions: 1 2 3 4 5 6 7 8 9 10 11 12 13 14 15 16 17 18 19 20 21 22 23 24 25 26 27 28 29 30 31 32 33 34 35 36 37
000
ASUS44 KHUN 231010
RWRHUN

WEATHER ROUNDUP FOR THE TENNESSEE VALLEY
NATIONAL WEATHER SERVICE HUNTSVILLE AL
500 AM CDT THU OCT 23 2014

ALZ001>004-231100-
NORTHWEST ALABAMA

CITY           SKY/WX    TMP DP  RH WIND       PRES   REMARKS
SHOALS AIRPORT CLEAR     42  38  85 CALM      30.19S
SHOALS TVA RES   N/A     41 N/A N/A MISG        N/A
$$

ALZ005>007-016-231100-
NORTH CENTRAL ALABAMA

CITY           SKY/WX    TMP DP  RH WIND       PRES   REMARKS
DECATUR AP     CLEAR     44  41  89 NE6       30.18S
HUNTSVILLE AP  CLEAR     44  40  85 NE8       30.18R
HUN NWS/UAH      N/A     43  40  87 CALM        N/A
MERIDIANVILLE  CLEAR     41  36  81 N5        30.19R
VINEMONT AP    FAIR      39  38  97 N5        30.18R
$$

ALZ008>010-231100-
NORTHEAST ALABAMA

CITY           SKY/WX    TMP DP  RH WIND       PRES   REMARKS
ALBERTVILLE    CLEAR     43  43 100 N6        30.15R
FORT PAYNE     CLEAR     37  34  87 CALM      30.14S FOG
SCOTTSBORO AP  CLEAR     43  39  87 CALM      30.19R
SCOTTSBORO HCN   N/A     41 N/A N/A MISG        N/A
VALLEY HEAD      N/A     37 N/A N/A MISG        N/A
$$

TNZ076-096-097-231100-
SOUTHEASTERN MIDDLE TENNESSEE

CITY           SKY/WX    TMP DP  RH WIND       PRES   REMARKS
TULLAHOMA      CLEAR     39  37  93 NE3       30.20R
WINCHESTER     CLEAR     34  34 100 CALM      30.20R
$$

...SURROUNDING SITES...

CITY           SKY/WX    TMP DP  RH WIND       PRES   REMARKS
ATLANTA        CLEAR     46  41  82 N6        30.10S
ANNISTON       CLEAR     41  39  93 E3        30.14R
BIRMINGHAM     CLEAR     44  41  89 N3        30.16R
CHATTANOOGA    CLEAR     47  40  76 N7        30.18R
CORINTH        FAIR      37  37 100 CALM      30.17S FOG
DALTON         CLEAR     41  41 100 N8        30.16R
GADSDEN        CLEAR     41  37  87 NW5       30.17R
GOLDEN TRNGL   CLEAR     43  37  81 NE6       30.13S
HALEYVILLE     FAIR      43  41  93 N6        30.17F
JACKSON TN     PTCLDY    37  36  93 CALM      30.19S FOG
MEMPHIS        PTCLDY    48  42  80 E3        30.18R
NASHVILLE      CLEAR     42  40  92 W3        30.24R
OXFORD MS      FAIR      39  37  93 CALM      30.18R
ROME           CLEAR     41  38  89 N3        30.14R
SAVANNAH       CLEAR     34  34 100 CALM      30.18S
TUPELO         CLEAR     42  39  89 NE6       30.16S
TUSCALOOSA     CLEAR     43  40  89 CALM      30.15R
$$

...GULF COAST WEATHER...

CITY           SKY/WX    TMP DP  RH WIND       PRES   REMARKS
GULFPORT       CLEAR     51  44  77 N3        30.07R
PASCAGOULA     CLEAR     45  43  93 N3        30.07S
MOBILE         CLEAR     49  45  86 NE9       30.07F
GULF SHORES    SUNNY     49  44  81 CALM      30.06R
PENSACOLA      CLEAR     50  45  83 N5        30.05R
DESTIN         CLEAR     57  48  72 NE8       30.04F
PANAMA CITY    CLEAR     55  47  74 E5        30.05R
APPALACHICOLA  CLEAR     55  48  77 NE7       30.03R
$$




USA.gov is the U.S. government's official web portal to all federal, state and local government web resources and services.